Location: Bundenthal
(49.0954°N, 7.8087°E)
Time: 01:48:17
(UTC+00:00)

Daily predictions for brighter satellites

Satellite Brightness Start Highest point End
(mag) Time Altitude Azimuth Time Altitude Azimuth Time Altitude Azimuth
ATLAS 2AS CENTAUR R/B 4.4 01:59:43 29° N 01:59:43 29° N 02:05:49 10° NE
SL-16 R/B 4.3 02:19:42 23° ENE 02:19:42 23° ENE 02:22:37 10° NE
Cosmos 2369 Rocket 4.2 02:24:49 22° NNE 02:26:02 24° NE 02:30:36 10° E
Cosmos 2333 Rocket 4.1 02:55:44 21° N 02:55:44 21° N 02:57:59 10° NNE
USA 215 3.5 02:48:36 10° NE 02:54:03 64° NE 02:54:03 64° NE
Meteor 2-10 Rocket 4.3 03:16:51 50° ENE 03:16:51 50° ENE 03:21:01 10° NNE
Cosmos 1934 Rocket 4.4 03:10:30 10° N 03:15:15 54° N 03:15:15 54° N
Cosmos 2237 Rocket 3.4 03:19:53 34° N 03:19:53 34° N 03:23:14 10° NNE
NOSS 3-1 (A) 4.2 03:19:35 58° S 03:19:35 58° S 03:26:38 10° SSE
CZ-4C R/B 3.1 03:21:53 42° N 03:21:53 42° N 03:26:48 10° NE
Cosmos 2219 Rocket 4.0 03:26:42 20° NNW 03:26:42 20° NNW 03:29:18 10° N
USA 267 4.4 03:23:39 10° SSE 03:26:50 28° S 03:26:50 28° S
Cosmos 1943 Rocket 2.2 03:37:56 63° N 03:38:43 75° ENE 03:44:12 10° SE
Cosmos 2360 Rocket 4.5 03:39:41 11° NNW 03:39:41 11° NNW 03:41:00 10° N
Cosmos 1605 Rocket 3.9 03:36:37 10° N 03:42:54 86° E 03:49:04 10° S
Lacrosse 5 2.4 03:45:18 48° SSE 03:45:18 48° SSE 03:49:00 10° SE
ATLAS CENTAUR R/B 2.5 03:52:19 40° N 03:52:19 40° N 03:55:24 10° NNE
ATLAS 2AS CENTAUR R/B 4.3 03:47:08 15° NW 03:52:40 32° NNE 03:59:10 10° E
ALOS 4.5 03:51:47 10° NE 03:55:40 25° E 03:59:30 10° SSE
PAYLOAD A 3.8 03:53:33 10° NNE 03:58:27 85° WNW 03:58:46 78° SW
MSX 3.7 03:54:14 10° N 03:59:54 64° WNW 04:00:17 62° W
CZ-2C R/B 2.4 03:54:56 10° NNE 04:00:09 86° ESE 04:01:40 48° S
SL-16 R/B 2.2 04:01:36 59° WNW 04:01:43 59° WNW 04:07:22 10° NNE
Cosmos 2251 Rocket 3.5 04:03:08 61° NW 04:03:08 61° NW 04:08:14 10° NNE
ADEOS II 4.3 04:01:20 10° NNW 04:01:44 11° NNW 04:01:44 11° NNW
Cosmos 1356 Rocket 4.3 04:06:32 38° N 04:06:32 38° N 04:09:11 10° N
IDEFIX/ARIANE 42P 3.5 04:02:09 10° N 04:05:35 32° NNW 04:05:35 32° NNW
Cosmos 1633 4.3 04:06:00 10° N 04:09:21 33° ENE 04:12:41 10° SE
BREEZE-M DEB (TANK) 3.0 04:09:15 61° W 04:10:06 80° SSW 04:21:57 10° ESE
Cosmos 2369 Rocket 2.1 04:06:41 20° NNW 04:10:47 82° WSW 04:16:30 10° SSE
H-2A R/B 3.0 04:07:02 10° NNE 04:11:24 64° ESE 04:15:05 15° S
SKYMED 2 4.4 04:08:01 10° SE 04:12:12 51° ENE 04:16:26 10° N
Spot 2 3.8 04:08:30 10° NNE 04:12:30 80° NW 04:12:30 80° NW
Cosmos 1727 Rocket 4.0 04:07:17 10° S 04:13:27 80° E 04:19:39 10° N
Cosmos 1500 Rocket 3.5 04:09:31 10° N 04:14:00 83° ENE 04:18:24 10° S
STARLINK-1129 4.3 04:16:13 36° NNE 04:16:13 36° NNE 04:18:49 10° ENE
Cosmos 2173 Rocket 4.4 04:10:56 10° N 04:17:12 63° ENE 04:23:21 10° SSE
STARLINK-1134 4.2 04:18:18 37° NNE 04:18:18 37° NNE 04:21:01 10° ENE
Cosmos 1603 4.1 04:13:19 14° SSW 04:18:13 64° ESE 04:23:51 10° NNE
Cosmos 1339 Rocket 4.3 04:15:29 29° SSW 04:18:42 65° WNW 04:24:48 10° N
Cosmos 1656 Rocket 4.2 04:13:47 10° NNW 04:19:26 61° ENE 04:25:03 10° SE
STARLINK-1135 4.1 04:20:42 39° NNE 04:20:42 39° NNE 04:23:31 10° ENE
Cosmos 1943 3.9 04:16:46 10° S 04:22:12 53° ESE 04:27:41 10° NE
STARLINK-1141 4.0 04:22:57 39° NNE 04:22:57 39° NNE 04:25:53 10° ENE
Aureole 2 Rocket 3.7 04:25:20 27° SSE 04:25:20 27° SSE 04:26:57 10° SSE
STARLINK-1140 3.9 04:25:13 40° N 04:25:13 40° N 04:28:15 10° ENE
Cosmos 1743 Rocket 3.4 04:22:15 10° NNW 04:26:34 68° W 04:30:52 10° S
CZ-4B R/B 4.0 04:22:29 10° NNE 04:26:51 86° WNW 04:30:00 19° SSW
STARLINK-1156 3.9 04:27:28 40° N 04:27:28 40° N 04:30:35 10° ENE
Cosmos 2263 4.1 04:21:44 10° NNW 04:27:28 83° WSW 04:33:07 10° SSE
STARLINK-1149 4.1 04:28:43 32° NE 04:28:43 32° NE 04:30:49 10° ENE
STARLINK-1148 3.8 04:29:44 41° N 04:29:48 41° N 04:32:58 10° ENE
Okean O Rocket 4.1 04:26:23 10° NE 04:29:52 23° E 04:33:20 10° SE
STARLINK-1153 3.8 04:31:49 37° NNE 04:31:49 37° NNE 04:34:23 10° ENE
STARLINK-1180 3.8 04:32:00 37° NNE 04:32:00 37° NNE 04:34:36 10° ENE
STARLINK-1158 3.8 04:31:58 40° N 04:32:09 41° N 04:35:19 10° ENE
STARLINK-1174 3.8 04:32:27 37° NNE 04:32:27 37° NNE 04:35:03 10° ENE
STARLINK-1139 3.8 04:32:41 37° NNE 04:32:41 37° NNE 04:35:17 10° ENE
STARLINK-1133 3.8 04:32:53 37° NNE 04:32:53 37° NNE 04:35:31 10° ENE
STARLINK-1151 3.8 04:33:08 37° NNE 04:33:08 37° NNE 04:35:45 10° ENE
STARLINK-1160 3.8 04:33:46 37° NNE 04:33:46 37° NNE 04:36:26 10° ENE
STARLINK-1161 3.8 04:33:58 37° NNE 04:33:58 37° NNE 04:36:38 10° ENE
STARLINK-1145 3.8 04:34:12 37° NNE 04:34:12 37° NNE 04:36:52 10° ENE
STARLINK-1172 3.8 04:34:24 37° NNE 04:34:24 37° NNE 04:37:05 10° ENE
Cosmos 2100 Rocket 4.0 04:28:06 10° N 04:34:23 87° E 04:40:32 10° S
STARLINK-1182 3.7 04:34:50 38° N 04:34:50 38° N 04:37:33 10° ENE
STARLINK-1164 3.7 04:35:03 38° N 04:35:03 38° N 04:37:46 10° ENE
STARLINK-1168 3.7 04:35:16 38° N 04:35:16 38° N 04:37:59 10° ENE
Shenzhou-11 Module 4.2 04:35:31 14° SSE 04:35:31 14° SSE 04:36:55 10° SE
NOSS 2-1 (E) 4.0 04:35:42 33° NNW 04:35:42 33° NNW 04:39:17 10° NNE
STARLINK-1183 3.7 04:35:55 38° N 04:35:55 38° N 04:38:40 10° ENE
STARLINK-1181 3.7 04:36:08 38° N 04:36:08 38° N 04:38:53 10° ENE
STARLINK-1196 3.7 04:36:47 38° N 04:36:48 38° N 04:39:35 10° ENE
STARLINK-1186 3.7 04:37:13 38° N 04:37:14 38° N 04:40:01 10° ENE
STARLINK-1185 3.7 04:37:26 38° N 04:37:28 38° N 04:40:15 10° ENE
STARLINK-1175 3.7 04:37:39 38° N 04:37:41 38° N 04:40:29 10° ENE
USA 215 3.7 04:31:38 10° ENE 04:37:52 49° N 04:41:24 25° WNW
STARLINK-1147 3.7 04:37:52 38° N 04:37:55 38° N 04:40:43 10° ENE
STARLINK-1146 3.7 04:38:04 38° N 04:38:08 38° N 04:40:56 10° E
STARLINK-1132 3.6 04:38:24 38° N 04:38:24 38° N 04:41:02 10° E
STARLINK-1152 3.6 04:38:19 38° N 04:38:24 38° N 04:41:11 10° E
STARLINK-1195 3.6 04:38:31 38° N 04:38:36 38° N 04:41:23 10° E
ADEOS 4.1 04:33:56 10° N 04:38:44 38° WNW 04:39:45 34° W
STARLINK-1137 3.6 04:38:44 38° N 04:38:50 38° N 04:41:37 10° E
Cosmos 2333 Rocket 4.3 04:37:44 11° NW 04:38:55 11° NNW 04:40:44 10° N
STARLINK-1142 3.6 04:38:57 38° N 04:39:03 38° N 04:41:50 10° E
STARLINK-1127 3.6 04:39:09 38° N 04:39:16 38° N 04:42:03 10° E
STARLINK-1184 3.6 04:39:22 38° N 04:39:29 38° N 04:42:17 10° E
STARLINK-1193 3.6 04:39:35 38° N 04:39:44 38° N 04:42:30 10° E
STARLINK-1194 3.6 04:39:49 38° N 04:39:57 38° N 04:42:44 10° E
Cosmos 1140 Rocket 4.0 04:34:50 10° S 04:40:00 62° ESE 04:45:12 10° NNE
STARLINK-1150 3.6 04:40:36 38° N 04:40:39 38° N 04:43:20 10° E
Meteor 2-3 Rocket 3.9 04:35:25 10° NNW 04:40:54 47° W 04:46:24 10° SSW
Cosmos 407 Rocket 3.5 04:36:08 10° SSW 04:41:28 85° ESE 04:46:47 10° NNE
STARLINK-1163 3.5 04:41:50 38° N 04:41:56 38° N 04:44:36 10° E
Cosmos 1862 4.3 04:38:22 10° N 04:42:14 48° ENE 04:46:05 10° SSE
Cosmos 1842 Rocket 3.7 04:40:30 31° SW 04:42:16 50° WNW 04:46:40 10° N
STARLINK-1177 3.5 04:43:31 38° N 04:43:41 39° N 04:46:21 10° E
STARLINK-1173 3.5 04:43:34 38° N 04:43:44 39° N 04:46:25 10° E
STARLINK-1167 3.5 04:44:01 38° N 04:44:14 39° N 04:46:55 10° E
Cosmos 1459 Rocket 3.9 04:38:49 10° N 04:45:01 86° W 04:51:17 10° S
GEOS 3 Rocket 3.7 04:40:11 10° NE 04:45:31 80° SE 04:50:29 12° SW
Cosmos 921 Rocket 2.9 04:41:29 10° NNW 04:45:55 67° WSW 04:50:13 10° S
BREEZE M DEB (TANK) 3.0 04:45:29 41° W 04:46:35 90° NNE 04:53:58 10° E
Cosmos 1484 Rocket 2.7 04:42:46 10° N 04:46:44 76° WNW 04:50:42 10° SSW
STARLINK-1136 3.4 04:48:47 37° NNW 04:49:10 40° N 04:51:50 10° E
USA 116 3.7 04:46:35 10° SSE 04:49:40 59° ENE 04:52:45 10° N
Cosmos 2061 Rocket 4.1 04:45:25 10° N 04:51:45 79° E 04:57:58 10° SSE
STARLINK-1170 3.3 04:53:19 36° NNW 04:53:43 39° NNE 04:56:14 10° E
STARLINK-1070 3.0 04:54:20 37° SSW 04:55:14 60° SSE 04:58:09 10° ENE
STARLINK-1124 2.8 04:54:41 43° SW 04:55:28 71° SSE 04:58:23 10° ENE
STARLINK-1066 3.0 04:54:55 37° SW 04:55:48 61° SSE 04:58:43 10° ENE
STARLINK-1081 3.0 04:55:08 37° SW 04:56:02 61° SSE 04:58:57 10° ENE
STARLINK-1069 3.0 04:55:34 37° SW 04:56:29 61° SSE 04:59:23 10° ENE
STARLINK-1085 3.0 04:55:46 37° SW 04:56:42 62° SSE 04:59:37 10° ENE
STARLINK-1086 3.0 04:56:03 36° SW 04:56:59 62° SSE 04:59:53 10° ENE
STARLINK-1095 3.0 04:56:13 36° SW 04:57:10 62° SSE 05:00:04 10° ENE
STARLINK-1077 3.0 04:56:24 36° SW 04:57:21 62° SSE 05:00:15 10° ENE
STARLINK-1075 3.0 04:56:39 36° SW 04:57:37 63° SSE 05:00:32 10° ENE
STARLINK-1093 3.0 04:56:52 36° SW 04:57:50 63° SSE 05:00:45 10° ENE
Cosmos 1725 Rocket 4.3 04:51:37 10° N 04:57:52 70° ENE 05:04:09 10° SSE
STARLINK-1104 4.4 04:55:03 16° SW 04:58:04 46° SE 05:02:00 10° ENE
STARLINK-1074 2.9 04:57:06 36° SW 04:58:05 63° SSE 05:01:00 10° ENE
STARLINK-1087 2.9 04:57:18 35° SW 04:58:17 64° SSE 05:01:12 10° ENE
STARLINK-1088 2.9 04:57:29 35° SW 04:58:29 64° SSE 05:01:23 10° ENE
STARLINK-1115 2.9 04:57:44 35° SW 04:58:44 64° SSE 05:01:40 10° ENE
STARLINK-1076 2.9 04:57:57 35° SW 04:58:58 64° SSE 05:01:53 10° ENE
STARLINK-1092 2.9 04:58:10 35° SW 04:59:11 65° SSE 05:02:06 10° ENE
STARLINK-1080 2.9 04:58:22 35° SW 04:59:24 65° SSE 05:02:19 10° ENE
STARLINK-1090 2.9 04:58:36 34° SW 04:59:38 65° SSE 05:02:33 10° ENE
Cosmos 2221 2.8 04:56:38 16° SW 04:59:46 42° WNW 05:03:53 10° N
STARLINK-1089 2.9 04:58:51 34° SW 04:59:54 65° SSE 05:02:50 10° ENE
STARLINK-1107 2.9 04:59:03 34° SW 05:00:06 66° SSE 05:03:00 10° ENE
COSMO-SKYMED 1 2.6 04:56:00 10° S 05:00:15 55° W 05:04:32 10° NNW
STARLINK-1109 2.9 04:59:14 34° SW 05:00:19 66° SSE 05:03:14 10° ENE
Cosmos 1633 Rocket 4.0 04:56:08 10° N 05:00:26 51° ENE 05:04:43 10° SSE
STARLINK-1091 2.9 04:59:28 34° SW 05:00:33 66° SSE 05:03:28 10° ENE
STARLINK-1072 2.9 04:59:39 34° SW 05:00:44 66° SSE 05:03:39 10° ENE
Cosmos 614 Rocket 4.0 04:55:38 10° SW 05:00:45 62° WNW 05:05:56 10° NNE
STARLINK-1096 2.9 04:59:53 34° SW 05:00:58 67° SSE 05:03:53 10° ENE
STARLINK-1079 2.9 05:00:06 33° SW 05:01:12 67° SSE 05:04:06 10° ENE
STARLINK-1116 2.9 05:00:20 33° SW 05:01:26 67° SSE 05:04:22 10° ENE
STARLINK-1094 2.9 05:00:46 33° SW 05:01:53 68° SSE 05:04:48 10° ENE
STARLINK-1117 2.8 05:00:58 33° SW 05:02:06 68° SSE 05:05:01 10° ENE
STARLINK-1078 2.8 05:01:12 32° SW 05:02:21 68° SSE 05:05:16 10° ENE
STARLINK-1108 2.8 05:01:25 32° SW 05:02:33 69° SSE 05:05:29 10° ENE
STARLINK-1144 4.3 04:59:24 15° SW 05:02:35 49° SE 05:06:32 10° ENE
STARLINK-1071 2.8 05:01:37 32° SW 05:02:45 69° SSE 05:05:40 10° ENE
STARLINK-1110 2.8 05:01:52 32° SW 05:03:02 69° SSE 05:05:58 10° ENE
Cosmos 2123 Rocket 4.5 04:56:49 10° S 05:03:03 66° E 05:09:18 10° NNE
Cosmos 2237 Rocket 4.0 05:01:42 13° NW 05:03:11 15° NNW 05:06:15 10° N
STARLINK-1122 2.8 05:02:15 32° SW 05:03:26 70° SSE 05:06:21 10° ENE
STARLINK-1126 2.8 05:02:28 31° SW 05:03:40 70° SSE 05:06:35 10° ENE
STARLINK-1082 2.8 05:02:43 31° SW 05:03:54 70° SSE 05:06:50 10° ENE
Cosmos 1666 Rocket 3.9 04:59:30 10° N 05:03:58 68° E 05:08:21 10° SSE
STARLINK-1100 2.8 05:02:56 31° SW 05:04:09 71° SSE 05:07:04 10° ENE
STARLINK-1162 3.6 05:02:49 26° NW 05:04:17 47° NNE 05:07:25 10° E
STARLINK-1083 2.8 05:03:09 31° SW 05:04:22 71° SSE 05:07:16 10° ENE
METEOR-M 4.1 04:59:08 10° NNE 05:04:31 88° WNW 05:09:52 10° SSW
STARLINK-1125 2.8 05:03:20 31° SW 05:04:33 71° SSE 05:07:29 10° ENE
STARLINK-1157 3.6 05:04:49 25° NW 05:06:22 48° NNE 05:09:31 10° E
Cosmos 1190 Rocket 4.0 05:01:15 10° SSW 05:06:31 72° WNW 05:11:52 10° NNE
PSLV R/B 3.6 05:03:27 10° N 05:07:11 69° WNW 05:10:57 10° SSW
STARLINK-1128 4.2 05:04:01 15° SW 05:07:15 54° SSE 05:11:13 10° ENE
STARLINK-1103 4.2 05:04:22 14° SW 05:07:44 53° SSE 05:11:44 10° ENE
STARLINK-1159 3.6 05:06:59 24° NW 05:08:37 48° NNE 05:11:47 10° E
COSMOS 2455 4.4 05:03:54 10° NNW 05:09:12 31° NE 05:14:30 10° E
CZ-4C R/B 3.9 05:07:04 14° NW 05:10:47 24° N 05:16:13 10° NE
STARLINK-1171 3.6 05:09:13 23° NW 05:10:58 49° NNE 05:14:08 10° E
Cosmos 1802 Rocket 4.0 05:04:35 10° NNW 05:10:59 69° W 05:17:21 10° S
Cosmos 1238 Rocket 3.6 05:04:50 10° NNW 05:11:00 74° W 05:16:10 10° S
STARLINK-1113 4.1 05:08:39 13° SW 05:12:06 57° SSE 05:16:05 10° ENE
STARLINK-1101 4.1 05:09:02 13° SW 05:12:35 57° SSE 05:16:36 10° ENE
STARLINK-1155 3.5 05:11:18 22° NW 05:13:09 50° NNE 05:16:19 10° E
Meteor 1-31 Rocket 3.8 05:11:56 10° N 05:15:06 25° WNW 05:16:45 19° WSW
BREEZE-M DEB (TANK) 4.4 05:10:56 10° SW 05:15:26 28° SSE 05:17:46 10° E
STARLINK-1166 3.5 05:13:32 21° NW 05:15:28 51° NNE 05:18:38 10° E
DMSP B5D1-3 4.5 05:10:47 10° SSE 05:15:52 87° WSW 05:21:00 10° NNW
STARLINK-1179 3.0 05:15:26 23° NW 05:16:48 51° NNE 05:19:24 10° E
Cosmos 1864 Rocket 4.4 05:10:39 10° N 05:16:49 86° W 05:22:59 10° S
STARLINK-1119 4.0 05:13:13 12° SW 05:16:50 61° SSE 05:20:50 10° ENE
SL-08 R/B 4.4 05:10:47 10° N 05:16:58 84° W 05:23:03 10° S
STARLINK-1176 3.0 05:15:58 23° NW 05:17:23 52° NNE 05:20:00 10° E
STARLINK-1102 4.0 05:13:42 12° SW 05:17:26 61° SSE 05:21:29 10° ENE
STARLINK-1165 3.5 05:15:41 20° WNW 05:17:43 52° NNE 05:20:55 10° E
STARLINK-1169 3.5 05:17:50 19° WNW 05:19:58 53° NNE 05:23:09 10° E
STARLINK-1114 3.9 05:17:35 11° SW 05:21:23 65° SSE 05:25:25 10° ENE
Cosmos 1943 Rocket 3.4 05:19:34 15° WNW 05:21:49 19° W 05:25:38 10° SW
CZ-4B R/B 3.7 05:18:45 10° N 05:21:50 25° WNW 05:24:16 13° WSW
STARLINK-1178 3.4 05:20:00 18° WNW 05:22:13 54° NNE 05:25:25 10° E
STARLINK-1111 3.9 05:18:24 11° SW 05:22:18 65° SSE 05:26:23 10° ENE
Cosmos 676 Rocket 4.0 05:18:55 10° SSW 05:24:15 82° WNW 05:29:38 10° NNE
STARLINK-1120 3.4 05:22:04 17° WNW 05:24:22 55° NNE 05:27:35 10° E
STARLINK-1130 (DARKSAT) 3.8 05:21:45 10° SW 05:25:41 69° SSE 05:29:43 10° ENE
Lacrosse 5 3.4 05:24:33 15° W 05:26:12 17° WSW 05:29:23 10° SSW
STARLINK-1131 3.4 05:24:16 16° WNW 05:26:40 57° NNE 05:29:52 10° E
STARLINK-1073 3.8 05:23:02 10° SW 05:27:06 69° SSE 05:31:12 10° ENE
STARLINK-1190 3.3 05:26:30 16° WNW 05:29:00 58° NNE 05:32:14 10° E
STARLINK-1084 3.7 05:26:44 10° SW 05:30:47 73° SSE 05:34:50 10° ENE
ATLAS CENTAUR R/B 3.4 05:28:31 12° WNW 05:30:50 16° NNW 05:33:35 10° NNE
STARLINK-1121 3.8 05:27:54 10° SW 05:31:59 74° SSE 05:36:06 10° ENE
Cosmos 1315 Rocket 4.3 05:28:57 10° SSE 05:32:39 40° E 05:36:22 10° NNE
ALOS 2.6 05:28:49 10° N 05:33:15 44° WNW 05:37:40 10° SW
Cosmos 2016 Rocket 4.1 05:27:57 10° NNW 05:34:01 56° W 05:40:09 10° SSW
Cosmos 1606 4.2 05:31:12 10° SSE 05:34:47 41° E 05:38:23 10° NNE
STARLINK-1106 3.7 05:32:54 10° WSW 05:37:00 78° SSE 05:41:07 10° ENE
CZ-2C R/B 4.0 05:34:22 10° NNW 05:37:42 18° NW 05:41:00 10° W
STARLINK-1112 3.7 05:37:47 10° WSW 05:41:54 82° SSE 05:46:01 10° ENE
Cosmos 1400 Rocket 2.8 05:38:03 10° SSW 05:42:03 60° WNW 05:46:07 10° N
Cosmos 1869 4.5 05:38:55 10° WSW 05:42:07 23° WNW 05:45:19 10° NNW
FENGYUN 3A 4.0 05:37:55 10° N 05:43:04 44° WNW 05:48:12 10° SW
NOAA 6 4.0 05:38:22 10° N 05:43:33 72° WNW 05:48:40 10° SSW
Cosmos 1470 Rocket 3.8 05:39:24 10° N 05:43:53 80° E 05:48:21 10° SSE
Cosmos 1633 3.9 05:41:20 10° NW 05:43:58 19° W 05:46:35 10° SW
Sich 1 3.6 05:40:17 10° NNW 05:44:10 34° W 05:48:04 10° SSW
Cosmos 1805 Rocket 4.5 05:40:41 10° NNW 05:44:17 26° W 05:47:52 10° SW
ISS -0.6 05:43:30 10° SSE 05:44:55 12° SE 05:46:21 10° ESE
ATLAS 2AS CENTAUR R/B 3.2 05:37:19 10° NW 05:45:03 69° NE 05:52:08 10° SE
STARLINK-1118 2.5 05:42:59 12° W 05:45:11 54° NNW 05:47:39 10° ENE
H-2A R/B 4.1 05:43:28 10° NNW 05:46:28 18° WNW 05:49:31 10° WSW
Cosmos 192 4.3 05:42:08 10° NNW 05:47:04 80° WSW 05:51:58 10° SSE
SL-16 R/B 3.9 05:43:37 10° WNW 05:47:06 16° NW 05:50:36 10° N
ADEOS Rocket 3.3 05:41:29 10° S 05:47:45 64° W 05:54:48 10° NNW
Cosmos 1763 Rocket 3.6 05:44:00 10° NNW 05:49:22 88° ENE 05:54:41 10° SSE
Cosmos 2084 3.6 05:46:14 10° SW 05:50:42 61° NW 05:55:09 10° NE
Cosmos 2233 Rocket 4.0 05:45:01 10° NNW 05:51:17 76° W 05:57:33 10° S
STARLINK-1129 3.1 05:49:06 10° WNW 05:52:24 75° NNE 05:55:41 10° ESE
TELKOM 3 2.7 05:50:43 11° W 05:52:47 64° SSW 05:54:53 10° ESE
Cosmos 2369 Rocket 3.8 05:50:56 10° WNW 05:53:54 14° W 05:56:51 10° SW
STARLINK-1134 3.1 05:51:17 10° WNW 05:54:35 77° NNE 05:57:52 10° ESE
H-2A R/B 2.6 05:51:53 10° NNE 05:55:39 84° WNW 05:59:22 10° SSW
STARLINK-1135 3.1 05:53:47 10° WNW 05:57:05 80° NNE 06:00:23 10° ESE
STARLINK-1141 3.1 05:56:07 10° WNW 05:59:26 82° NNE 06:02:44 10° ESE
